Find Starlink 6212

NORAD ID: 57330 Int'l Des: 2023-099 Owner: SPXS Country: US Constellation: starlink operational
LEOCIRCULAR

当前视图

正在加载3D地球...

About Starlink 6212

Starlink 6212 (NORAD 57330) is a starlink constellation satellite (v1.5) launched Jul 16, 2023 by SPXS of US. It operates in LEO, CIRCULAR orbit with a mass of 305.00 kg.

关于 Starlink 6212

正在加载描述...

即将过境

Passes for default location (London). Set your location on the main map for personalized predictions.

高度历史

Loading altitude history...

两行轨道根数

1 57330U 23099C 26169.02702399 -.00000224 00000-0 13975-5 0 9996
2 57330 43.0046 45.5880 0001064 264.6105 95.4625 15.27575431161427
Epoch: Jun 18, 2026 • Age: 13 hours

当前状态

高度 482.3 km
速度 7.63 km/s
星下点 8.34°N, 97.64°E
发射日期 Jul 16, 2023
运行时间 2.9 years
类型 internet

技术详情

分类 Payload
质量 305.00 kg
干质量 290.00 kg
总质量 305.00 kg
长度 0.20 m
直径 2.80 m
跨度 9.00 m
形状 Box + pan
制造商 SPXS
平台类型 Starlink
阶段状态 In Orbit
所有者/国家 SPXS/US

Most Searched